This demonstration page uses our WeatherBlox Daily Observations layout. Learn more.

Left ArrowRight Arrow

47.50024, -111.30081

Hourly Observations for April 9, 2016

Temp ( °F °C ) Dew Point ( °F °C ) Humidity (%) Winds ( mph kmh ) Pressure ( in mb ) Visibility ( mi km ) Precip ( " mm )
12:53 am 00:53 Clear 54 12.2 27 -2.8 35 35 SW 16 26 29.60 1002 10 16 0.00 0.00
1:53 am 01:53 Clear 50 10 27 -2.8 41 41 SSW 14 22 29.58 1002 10 16 0.00 0.00
2:53 am 02:53 Clear 52 11.1 26 -3.3 37 37 SW 14 22 29.55 1001 10 16 0.00 0.00
3:53 am 03:53 Clear 51 10.6 27 -2.8 39 39 SSW 14 22 29.54 1000 10 16 0.00 0.00
4:53 am 04:53 Clear 55 12.8 27 -2.8 34 34 SW 16 26 29.51 999 10 16 0.00 0.00
5:53 am 05:53 Clear 53 11.7 28 -2.2 38 38 WSW 17 28 29.52 1000 10 16 0.00 0.00
6:53 am 06:53 Sunny 56 13.3 28 -2.2 34 34 SW 15 24 29.51 999 10 16 0.00 0.00
7:50 am 07:50 Sunny 57 14 27 -3 31 31 NNW 13 20 29.56 1001 10 16 0.00 0.00
7:53 am 07:53 Sunny 57 13.9 27 -2.8 32 32 NNW 13 20 29.59 1002 10 16 0.00 0.00
8:00 am 08:00 Sunny 55 13 28 -2 36 36 N 15 24 29.59 1002 10 16 0.00 0.00
8:53 am 08:53 Sunny 49 9.4 30 -1.1 48 48 NNE 18 30 29.69 1006 10 16 0.00 0.00
9:53 am 09:53 Sunny 50 10 29 -1.7 44 44 N 13 20 29.74 1007 10 16 0.00 0.00
10:53 am 10:53 Sunny 53 11.7 30 -1.1 41 41 N 7 11 29.76 1008 10 16 0.00 0.00
11:53 am 11:53 Sunny 56 13.3 30 -1.1 37 37 NW 12 19 29.74 1007 10 16 0.00 0.00
12:53 pm 12:53 Sunny 60 15.6 29 -1.7 31 31 N 8 13 29.72 1006 10 16 0.00 0.00
1:53 pm 13:53 Sunny 60 15.6 29 -1.7 31 31 NNW 9 15 29.72 1006 10 16 0.00 0.00
2:53 pm 14:53 Sunny 62 16.7 29 -1.7 29 29 VRB 6 9 29.70 1006 10 16 0.00 0.00
3:53 pm 15:53 Sunny 60 15.6 28 -2.2 30 30 NNE 17 28 29.68 1005 10 16 0.00 0.00
4:53 pm 16:53 Sunny 60 15.6 27 -2.8 28 28 NNE 16 26 29.67 1005 10 16 0.00 0.00
5:53 pm 17:53 Sunny 59 15 26 -3.3 28 28 N 13 20 29.69 1005 10 16 0.00 0.00
6:53 pm 18:53 Sunny 57 13.9 26 -3.3 30 30 NNE 13 20 29.69 1005 10 16 0.00 0.00
7:53 pm 19:53 Sunny 51 10.6 25 -3.9 36 36 NNE 10 17 29.72 1006 10 16 0.00 0.00
8:53 pm 20:53 Clear 46 7.8 26 -3.3 46 46 NNE 9 15 29.78 1009 10 16 0.00 0.00
9:53 pm 21:53 Cloudy 49 9.4 26 -3.3 41 41 NE 12 19 29.79 1009 10 16 0.00 0.00
10:53 pm 22:53 Cloudy 50 10 26 -3.3 39 39 ENE 13 20 29.80 1009 10 16 0.00 0.00
11:53 pm 23:53 Cloudy 48 8.9 28 -2.2 46 46 E 6 9 29.82 1010 10 16 0.00 0.00

Powered by AerisWeather